Time,TemperatureF,DewpointF,PressureIn,WindDirection,WindDirectionDegrees,WindSpeedMPH,WindSpeedGustMPH,Humidity,HourlyPrecipIn,Conditions,Clouds,dailyrainin,SoftwareType,DateUTC
2013-06-27 00:00:00,43.9,36.8,30.27,West,272,0.0,2.0,76,0.00,CLR,,0.00,WeatherDisplay:10.37,2013-06-26 23:00:00,
2013-06-27 00:10:00,43.3,36.9,30.27,West,270,1.0,1.0,78,0.00,CLR,,0.00,WeatherDisplay:10.37,2013-06-26 23:10:00,
2013-06-27 00:20:00,43.5,37.1,30.27,West,270,2.0,3.0,78,0.00,CLR,,0.00,WeatherDisplay:10.37,2013-06-26 23:20:00,
2013-06-27 00:30:00,43.9,37.5,30.27,WSW,252,1.0,4.0,78,0.00,CLR,,0.00,WeatherDisplay:10.37,2013-06-26 23:30:00,
2013-06-27 00:40:00,43.9,37.8,30.27,West,270,0.0,2.0,79,0.00,CLR,,0.00,WeatherDisplay:10.37,2013-06-26 23:40:00,
2013-06-27 00:50:00,44.1,38.3,30.27,West,270,0.0,1.0,80,0.00,CLR,,0.00,WeatherDisplay:10.37,2013-06-26 23:50:00,
2013-06-27 01:00:00,44.1,38.6,30.26,West,270,0.0,1.0,81,0.00,CLR,,0.00,WeatherDisplay:10.37,2013-06-27 00:00:00,
2013-06-27 01:10:00,44.4,39.0,30.26,West,270,0.0,2.0,81,0.00,CLR,,0.00,WeatherDisplay:10.37,2013-06-27 00:10:00,
2013-06-27 01:20:00,44.6,39.1,30.26,West,270,0.0,2.0,81,0.00,CLR,,0.00,WeatherDisplay:10.37,2013-06-27 00:20:00,
2013-06-27 01:30:00,44.7,39.5,30.26,West,270,0.0,0.0,82,0.00,CLR,,0.00,WeatherDisplay:10.37,2013-06-27 00:30:00,
2013-06-27 01:40:00,44.8,39.6,30.25,West,270,0.0,0.0,82,0.00,CLR,,0.00,WeatherDisplay:10.37,2013-06-27 00:40:00,
2013-06-27 01:50:00,44.7,39.5,30.25,West,270,0.0,2.0,82,0.00,CLR,,0.00,WeatherDisplay:10.37,2013-06-27 00:50:00,
2013-06-27 02:00:00,44.4,39.3,30.25,West,270,0.0,2.0,82,0.00,CLR,,0.00,WeatherDisplay:10.37,2013-06-27 01:00:00,
2013-06-27 02:10:00,44.8,39.9,30.25,WSW,248,2.0,4.0,83,0.00,CLR,,0.00,WeatherDisplay:10.37,2013-06-27 01:10:00,
2013-06-27 02:20:00,45.0,40.1,30.25,WSW,248,0.0,1.0,83,0.00,CLR,,0.00,WeatherDisplay:10.37,2013-06-27 01:20:00,
2013-06-27 02:30:00,44.8,39.9,30.24,WSW,248,0.0,1.0,83,0.00,CLR,,0.00,WeatherDisplay:10.37,2013-06-27 01:30:00,
2013-06-27 02:40:00,44.6,39.8,30.23,WSW,248,0.0,3.0,83,0.00,CLR,,0.00,WeatherDisplay:10.37,2013-06-27 01:40:00,
2013-06-27 02:50:00,44.3,39.4,30.23,WSW,248,1.0,3.0,83,0.00,CLR,,0.00,WeatherDisplay:10.37,2013-06-27 01:50:00,
2013-06-27 03:00:00,44.8,40.2,30.24,WSW,248,0.0,1.0,84,0.00,CLR,,0.00,WeatherDisplay:10.37,2013-06-27 02:00:00,
2013-06-27 03:10:00,44.5,40.0,30.23,West,264,1.0,3.0,84,0.00,CLR,,0.00,WeatherDisplay:10.37,2013-06-27 02:10:00,
2013-06-27 03:20:00,44.2,39.7,30.23,West,270,0.0,1.0,84,0.00,CLR,,0.00,WeatherDisplay:10.37,2013-06-27 02:20:00,
2013-06-27 03:30:00,44.2,39.6,30.22,West,270,0.0,1.0,84,0.00,CLR,,0.00,WeatherDisplay:10.37,2013-06-27 02:30:00,
2013-06-27 03:40:00,43.8,39.3,30.22,WSW,248,1.0,2.0,84,0.00,CLR,,0.00,WeatherDisplay:10.37,2013-06-27 02:40:00,
2013-06-27 03:50:00,43.5,39.0,30.22,WSW,248,0.0,2.0,84,0.00,CLR,,0.00,WeatherDisplay:10.37,2013-06-27 02:50:00,
2013-06-27 04:00:00,43.0,38.8,30.22,WSW,248,0.0,0.0,85,0.00,CLR,,0.00,WeatherDisplay:10.37,2013-06-27 03:00:00,
2013-06-27 04:10:00,43.0,38.8,30.21,WSW,248,2.0,2.0,85,0.00,CLR,,0.00,WeatherDisplay:10.37,2013-06-27 03:10:00,
2013-06-27 04:20:00,42.7,38.5,30.20,WSW,248,1.0,4.0,85,0.00,CLR,,0.00,WeatherDisplay:10.37,2013-06-27 03:20:00,
2013-06-27 04:30:00,43.5,39.6,30.20,WSW,248,1.0,4.0,86,0.00,CLR,,0.00,WeatherDisplay:10.37,2013-06-27 03:30:00,
2013-06-27 04:40:00,43.7,39.5,30.20,WSW,248,0.0,0.0,85,0.00,CLR,,0.00,WeatherDisplay:10.37,2013-06-27 03:40:00,
2013-06-27 04:50:00,43.9,39.7,30.20,WSW,248,0.0,1.0,85,0.00,CLR,,0.00,WeatherDisplay:10.37,2013-06-27 03:50:00,
2013-06-27 05:00:00,44.1,40.1,30.20,WSW,248,0.0,1.0,86,0.00,CLR,,0.00,WeatherDisplay:10.37,2013-06-27 04:00:00,
2013-06-27 05:10:00,44.2,40.3,30.19,WSW,248,1.0,4.0,86,0.00,CLR,,0.00,WeatherDisplay:10.37,2013-06-27 04:10:00,
2013-06-27 05:20:00,44.8,40.9,30.19,WSW,248,1.0,3.0,86,0.00,CLR,,0.00,WeatherDisplay:10.37,2013-06-27 04:20:00,
2013-06-27 05:30:00,45.5,41.9,30.19,WSW,248,0.0,1.0,87,0.00,CLR,,0.00,WeatherDisplay:10.37,2013-06-27 04:30:00,
2013-06-27 05:40:00,46.1,42.5,30.19,WSW,248,0.0,1.0,87,0.00,CLR,,0.00,WeatherDisplay:10.37,2013-06-27 04:40:00,
2013-06-27 05:50:00,46.9,43.3,30.18,WSW,256,1.0,4.0,87,0.00,CLR,,0.00,WeatherDisplay:10.37,2013-06-27 04:50:00,
2013-06-27 06:00:00,47.7,44.0,30.18,SW,229,0.0,5.0,87,0.00,CLR,,0.00,WeatherDisplay:10.37,2013-06-27 05:00:00,
2013-06-27 06:10:00,48.6,44.9,30.18,SW,225,3.0,5.0,87,0.00,CLR,,0.00,WeatherDisplay:10.37,2013-06-27 05:10:00,
2013-06-27 06:20:00,49.3,45.6,30.18,SSW,212,3.0,6.0,87,0.00,CLR,,0.00,WeatherDisplay:10.37,2013-06-27 05:20:00,
2013-06-27 06:30:00,50.0,46.3,30.17,SW,235,2.0,7.0,87,0.00,CLR,,0.00,WeatherDisplay:10.37,2013-06-27 05:30:00,
2013-06-27 06:40:00,50.4,46.6,30.17,WSW,243,1.0,3.0,87,0.00,CLR,,0.00,WeatherDisplay:10.37,2013-06-27 05:40:00,
2013-06-27 06:50:00,50.7,46.7,30.17,WSW,248,1.0,3.0,86,0.00,CLR,,0.00,WeatherDisplay:10.37,2013-06-27 05:50:00,
2013-06-27 07:00:00,51.0,46.6,30.17,SW,225,2.0,4.0,85,0.00,CLR,,0.00,WeatherDisplay:10.37,2013-06-27 06:00:00,
2013-06-27 07:10:00,51.4,47.1,30.17,South,173,1.0,2.0,85,0.00,CLR,,0.00,WeatherDisplay:10.37,2013-06-27 06:10:00,
2013-06-27 07:20:00,51.7,47.0,30.16,ENE,63,0.0,2.0,84,0.00,CLR,,0.00,WeatherDisplay:10.37,2013-06-27 06:20:00,
2013-06-27 07:30:00,52.3,47.6,30.16,ESE,108,0.0,1.0,84,0.00,CLR,,0.00,WeatherDisplay:10.37,2013-06-27 06:30:00,
2013-06-27 07:40:00,52.7,47.4,30.16,ENE,66,1.0,2.0,82,0.00,CLR,,0.00,WeatherDisplay:10.37,2013-06-27 06:40:00,
2013-06-27 07:50:00,53.0,47.3,30.17,NW,304,1.0,3.0,81,0.00,CLR,,0.00,WeatherDisplay:10.37,2013-06-27 06:50:00,
2013-06-27 08:00:00,52.5,46.5,30.16,NW,322,3.0,5.0,80,0.00,CLR,,0.00,WeatherDisplay:10.37,2013-06-27 07:00:00,
2013-06-27 08:10:00,52.8,46.5,30.16,WNW,292,1.0,3.0,79,0.00,CLR,,0.00,WeatherDisplay:10.37,2013-06-27 07:10:00,
2013-06-27 08:20:00,52.7,46.0,30.16,WNW,288,3.0,5.0,78,0.00,CLR,,0.00,WeatherDisplay:10.37,2013-06-27 07:20:00,
2013-06-27 08:30:00,52.3,45.3,30.16,WNW,293,3.0,5.0,77,0.00,CLR,,0.00,WeatherDisplay:10.37,2013-06-27 07:30:00,
2013-06-27 08:40:00,52.5,45.2,30.15,NW,304,2.0,8.0,76,0.02,RA,,0.02,WeatherDisplay:10.37,2013-06-27 07:40:00,
2013-06-27 08:50:00,52.7,44.6,30.15,WNW,292,2.0,4.0,74,0.00,,,0.02,WeatherDisplay:10.37,2013-06-27 07:50:00,
2013-06-27 09:00:00,52.7,44.3,30.14,WNW,290,1.0,4.0,73,0.00,CLR,,0.02,WeatherDisplay:10.37,2013-06-27 08:00:00,
2013-06-27 09:10:00,53.5,45.1,30.14,West,273,5.0,8.0,73,0.00,CLR,,0.02,WeatherDisplay:10.37,2013-06-27 08:10:00,
2013-06-27 09:20:00,54.1,45.3,30.15,West,266,2.0,5.0,72,0.00,CLR,,0.02,WeatherDisplay:10.37,2013-06-27 08:20:00,
2013-06-27 09:30:00,54.1,44.9,30.14,West,259,2.0,7.0,71,0.00,CLR,,0.02,WeatherDisplay:10.37,2013-06-27 08:30:00,
2013-06-27 09:40:00,54.5,44.9,30.14,West,264,2.0,5.0,70,0.00,CLR,,0.02,WeatherDisplay:10.37,2013-06-27 08:40:00,
2013-06-27 09:50:00,54.9,45.3,30.14,West,271,3.0,6.0,70,0.00,CLR,,0.02,WeatherDisplay:10.37,2013-06-27 08:50:00,
2013-06-27 10:00:00,55.6,46.3,30.14,West,267,3.0,4.0,71,0.00,CLR,,0.02,WeatherDisplay:10.37,2013-06-27 09:00:00,
2013-06-27 10:10:00,55.5,46.2,30.14,WNW,295,8.0,10.0,71,0.00,CLR,,0.02,WeatherDisplay:10.37,2013-06-27 09:10:00,
2013-06-27 10:20:00,54.3,44.7,30.14,WNW,301,8.0,12.0,70,0.00,CLR,,0.02,WeatherDisplay:10.37,2013-06-27 09:20:00,
2013-06-27 10:30:00,53.2,44.4,30.15,WNW,302,5.0,12.0,72,0.00,CLR,,0.02,WeatherDisplay:10.37,2013-06-27 09:30:00,
2013-06-27 10:40:00,53.7,45.6,30.14,WSW,252,2.0,4.0,74,0.00,CLR,,0.02,WeatherDisplay:10.37,2013-06-27 09:40:00,
2013-06-27 10:50:00,54.1,46.4,30.14,WSW,239,2.0,5.0,75,0.00,CLR,,0.02,WeatherDisplay:10.37,2013-06-27 09:50:00,
2013-06-27 11:00:00,55.0,47.6,30.14,WSW,251,0.0,3.0,76,0.00,CLR,,0.02,WeatherDisplay:10.37,2013-06-27 10:00:00,
2013-06-27 11:10:00,55.2,47.8,30.14,WSW,250,2.0,5.0,76,0.00,CLR,,0.02,WeatherDisplay:10.37,2013-06-27 10:10:00,
2013-06-27 11:20:00,55.6,48.5,30.13,West,265,1.0,4.0,77,0.02,RA,,0.04,WeatherDisplay:10.37,2013-06-27 10:20:00,
2013-06-27 11:30:00,55.9,48.8,30.12,WSW,237,3.0,6.0,77,0.00,CLR,,0.04,WeatherDisplay:10.37,2013-06-27 10:30:00,
2013-06-27 11:40:00,55.8,48.7,30.12,SW,223,5.0,6.0,77,0.00,CLR,,0.04,WeatherDisplay:10.37,2013-06-27 10:40:00,
2013-06-27 11:50:00,56.1,49.4,30.12,SW,217,3.0,5.0,78,0.02,RA,,0.06,WeatherDisplay:10.37,2013-06-27 10:50:00,
2013-06-27 12:00:00,56.1,49.4,30.12,WNW,302,2.0,5.0,78,0.00,CLR,,0.06,WeatherDisplay:10.37,2013-06-27 11:00:00,
2013-06-27 12:10:00,56.7,49.9,30.11,WNW,286,2.0,3.0,78,0.00,CLR,,0.06,WeatherDisplay:10.37,2013-06-27 11:10:00,
2013-06-27 12:20:00,55.8,49.4,30.11,NW,313,7.0,8.0,79,0.02,RA,,0.08,WeatherDisplay:10.37,2013-06-27 11:20:00,
2013-06-27 12:30:00,55.0,49.0,30.11,NW,305,5.0,10.0,80,0.00,,,0.08,WeatherDisplay:10.37,2013-06-27 11:30:00,
2013-06-27 12:40:00,55.4,49.7,30.11,WNW,292,6.0,9.0,81,0.00,CLR,,0.08,WeatherDisplay:10.37,2013-06-27 11:40:00,
2013-06-27 12:50:00,55.8,50.3,30.10,West,277,3.0,7.0,82,0.00,CLR,,0.08,WeatherDisplay:10.37,2013-06-27 11:50:00,
2013-06-27 13:00:00,55.8,50.3,30.10,WNW,288,5.0,10.0,82,0.02,RA,,0.10,WeatherDisplay:10.37,2013-06-27 12:00:00,
2013-06-27 13:10:00,55.6,50.2,30.10,WNW,292,6.0,10.0,82,0.00,,,0.10,WeatherDisplay:10.37,2013-06-27 12:10:00,
2013-06-27 13:20:00,55.6,50.2,30.10,WNW,294,8.0,10.0,82,0.00,CLR,,0.10,WeatherDisplay:10.37,2013-06-27 12:20:00,
2013-06-27 13:30:00,55.8,50.3,30.09,WNW,291,6.0,12.0,82,0.00,CLR,,0.10,WeatherDisplay:10.37,2013-06-27 12:30:00,
2013-06-27 13:40:00,55.6,49.5,30.10,WNW,291,8.0,11.0,80,0.00,CLR,,0.10,WeatherDisplay:10.37,2013-06-27 12:40:00,
2013-06-27 13:50:00,56.2,50.1,30.09,WNW,296,5.0,11.0,80,0.00,CLR,,0.10,WeatherDisplay:10.37,2013-06-27 12:50:00,
2013-06-27 14:00:00,57.6,51.4,30.09,WNW,296,3.0,10.0,80,0.00,CLR,,0.10,WeatherDisplay:10.37,2013-06-27 13:00:00,
2013-06-27 14:10:00,57.8,50.7,30.09,WNW,296,6.0,13.0,77,0.00,CLR,,0.10,WeatherDisplay:10.37,2013-06-27 13:10:00,
2013-06-27 14:20:00,58.1,50.6,30.09,WNW,282,2.0,12.0,76,0.00,CLR,,0.10,WeatherDisplay:10.37,2013-06-27 13:20:00,
2013-06-27 14:30:00,58.9,51.0,30.09,WNW,283,6.0,10.0,75,0.00,CLR,,0.10,WeatherDisplay:10.37,2013-06-27 13:30:00,
2013-06-27 14:40:00,58.4,49.8,30.08,WNW,289,8.0,11.0,73,0.00,CLR,,0.10,WeatherDisplay:10.37,2013-06-27 13:40:00,
2013-06-27 14:50:00,58.1,49.9,30.08,WNW,291,3.0,12.0,74,0.00,CLR,,0.10,WeatherDisplay:10.37,2013-06-27 13:50:00,
2013-06-27 15:00:00,59.7,51.8,30.07,West,276,2.0,8.0,75,0.00,CLR,,0.10,WeatherDisplay:10.37,2013-06-27 14:00:00,
2013-06-27 15:10:00,61.7,52.2,30.07,West,279,3.0,9.0,71,0.00,CLR,,0.10,WeatherDisplay:10.37,2013-06-27 14:10:00,
2013-06-27 15:20:00,61.4,51.1,30.07,WNW,288,3.0,9.0,69,0.00,CLR,,0.10,WeatherDisplay:10.37,2013-06-27 14:20:00,
2013-06-27 15:30:00,61.4,51.1,30.07,West,275,1.0,5.0,69,0.00,CLR,,0.10,WeatherDisplay:10.37,2013-06-27 14:30:00,
2013-06-27 15:40:00,62.1,51.8,30.06,WSW,246,3.0,8.0,69,0.00,CLR,,0.10,WeatherDisplay:10.37,2013-06-27 14:40:00,
2013-06-27 15:50:00,62.8,52.1,30.06,WSW,242,1.0,7.0,68,0.00,CLR,,0.10,WeatherDisplay:10.37,2013-06-27 14:50:00,
2013-06-27 16:00:00,62.9,51.8,30.06,West,278,5.0,5.0,67,0.00,CLR,,0.10,WeatherDisplay:10.37,2013-06-27 15:00:00,
2013-06-27 16:20:00,61.2,50.5,30.06,West,262,3.0,7.0,68,0.00,CLR,,0.10,WeatherDisplay:10.37,2013-06-27 15:20:00,
2013-06-27 16:30:00,60.1,49.5,30.05,WNW,283,3.0,10.0,68,0.00,CLR,,0.10,WeatherDisplay:10.37,2013-06-27 15:30:00,
2013-06-27 16:40:00,59.9,50.1,30.05,WNW,282,1.0,4.0,70,0.00,CLR,,0.10,WeatherDisplay:10.37,2013-06-27 15:40:00,
2013-06-27 16:50:00,62.1,52.9,30.04,West,271,1.0,4.0,72,0.00,CLR,,0.10,WeatherDisplay:10.37,2013-06-27 15:50:00,
2013-06-27 17:00:00,63.1,52.7,30.04,SW,235,3.0,9.0,69,0.00,CLR,,0.10,WeatherDisplay:10.37,2013-06-27 16:00:00,
2013-06-27 17:10:00,65.0,54.2,30.03,SW,218,3.0,9.0,68,0.00,CLR,,0.10,WeatherDisplay:10.37,2013-06-27 16:10:00,
2013-06-27 17:20:00,65.5,53.0,30.03,SW,216,5.0,12.0,64,0.00,CLR,,0.10,WeatherDisplay:10.37,2013-06-27 16:20:00,
2013-06-27 17:30:00,65.8,53.3,30.03,WSW,250,3.0,8.0,64,0.00,CLR,,0.10,WeatherDisplay:10.37,2013-06-27 16:30:00,
2013-06-27 17:40:00,64.2,51.8,30.03,WNW,287,5.0,8.0,64,0.00,CLR,,0.10,WeatherDisplay:10.37,2013-06-27 16:40:00,
2013-06-27 17:50:00,64.1,52.5,30.03,West,271,5.0,7.0,66,0.00,CLR,,0.10,WeatherDisplay:10.37,2013-06-27 16:50:00,
2013-06-27 18:00:00,63.4,51.9,30.03,West,264,1.0,8.0,66,0.00,CLR,,0.10,WeatherDisplay:10.37,2013-06-27 17:00:00,
2013-06-27 18:10:00,62.2,50.7,30.03,WNW,290,1.0,5.0,66,0.00,CLR,,0.10,WeatherDisplay:10.37,2013-06-27 17:10:00,
2013-06-27 18:20:00,61.7,51.0,30.02,WNW,303,2.0,6.0,68,0.00,CLR,,0.10,WeatherDisplay:10.37,2013-06-27 17:20:00,
2013-06-27 18:30:00,61.5,51.3,30.02,WSW,249,2.0,5.0,69,0.00,CLR,,0.10,WeatherDisplay:10.37,2013-06-27 17:30:00,
2013-06-27 18:40:00,61.7,51.8,30.02,WNW,284,3.0,7.0,70,0.00,CLR,,0.10,WeatherDisplay:10.37,2013-06-27 17:40:00,
2013-06-27 18:50:00,61.5,52.0,30.01,WNW,301,6.0,10.0,71,0.00,CLR,,0.10,WeatherDisplay:10.37,2013-06-27 17:50:00,
2013-06-27 19:00:00,61.1,51.6,30.01,WNW,293,5.0,10.0,71,0.00,CLR,,0.10,WeatherDisplay:10.37,2013-06-27 18:00:00,
2013-06-27 19:10:00,61.2,52.1,30.01,WNW,285,3.0,6.0,72,0.00,CLR,,0.10,WeatherDisplay:10.37,2013-06-27 18:10:00,
2013-06-27 19:20:00,61.2,52.1,30.01,West,268,2.0,5.0,72,0.00,CLR,,0.10,WeatherDisplay:10.37,2013-06-27 18:20:00,
2013-06-27 19:30:00,60.8,51.7,30.01,WSW,248,2.0,4.0,72,0.00,CLR,,0.10,WeatherDisplay:10.37,2013-06-27 18:30:00,
2013-06-27 19:40:00,60.3,51.2,30.01,WSW,239,5.0,6.0,72,0.00,CLR,,0.10,WeatherDisplay:10.37,2013-06-27 18:40:00,
2013-06-27 19:50:00,60.3,51.6,30.01,WSW,249,1.0,6.0,73,0.00,CLR,,0.10,WeatherDisplay:10.37,2013-06-27 18:50:00,
2013-06-27 20:00:00,59.9,51.6,30.00,WNW,289,5.0,7.0,74,0.00,CLR,,0.10,WeatherDisplay:10.37,2013-06-27 19:00:00,
2013-06-27 20:10:00,59.4,51.4,30.00,WNW,290,3.0,7.0,75,0.00,CLR,,0.10,WeatherDisplay:10.37,2013-06-27 19:10:00,
2013-06-27 20:20:00,59.2,51.6,30.00,NW,309,5.0,5.0,76,0.00,CLR,,0.10,WeatherDisplay:10.37,2013-06-27 19:20:00,
2013-06-27 20:30:00,58.8,51.6,30.00,WNW,302,3.0,6.0,77,0.00,CLR,,0.10,WeatherDisplay:10.37,2013-06-27 19:30:00,
2013-06-27 20:40:00,58.6,51.4,30.00,WNW,299,2.0,5.0,77,0.00,CLR,,0.10,WeatherDisplay:10.37,2013-06-27 19:40:00,
2013-06-27 20:50:00,58.6,51.8,30.00,WNW,294,3.0,6.0,78,0.00,CLR,,0.10,WeatherDisplay:10.37,2013-06-27 19:50:00,
2013-06-27 21:00:00,58.5,52.0,30.00,WNW,291,5.0,10.0,79,0.00,CLR,,0.10,WeatherDisplay:10.37,2013-06-27 20:00:00,
2013-06-27 21:10:00,58.1,51.6,30.00,WNW,286,5.0,7.0,79,0.00,CLR,,0.10,WeatherDisplay:10.37,2013-06-27 20:10:00,
2013-06-27 21:20:00,57.9,51.8,30.00,WNW,295,3.0,7.0,80,0.00,CLR,,0.10,WeatherDisplay:10.37,2013-06-27 20:20:00,
2013-06-27 21:40:00,57.8,52.4,30.00,WNW,301,6.0,11.0,82,0.00,CLR,,0.10,WeatherDisplay:10.37,2013-06-27 20:40:00,
2013-06-27 22:00:00,57.5,52.1,30.00,WNW,302,10.0,13.0,82,0.00,CLR,,0.10,WeatherDisplay:10.37,2013-06-27 21:00:00,
2013-06-27 22:10:00,57.4,52.3,30.00,WNW,294,7.0,12.0,83,0.00,CLR,,0.10,WeatherDisplay:10.37,2013-06-27 21:10:00,
2013-06-27 22:20:00,57.0,51.9,30.00,WNW,285,5.0,10.0,83,0.00,CLR,,0.10,WeatherDisplay:10.37,2013-06-27 21:20:00,
2013-06-27 22:40:00,55.9,50.9,30.00,West,279,3.0,8.0,83,0.00,CLR,,0.10,WeatherDisplay:10.37,2013-06-27 21:40:00,
2013-06-27 22:50:00,55.3,50.2,30.00,WSW,255,5.0,6.0,83,0.00,CLR,,0.10,WeatherDisplay:10.37,2013-06-27 21:50:00,
2013-06-27 23:00:00,55.0,50.3,30.00,WSW,254,3.0,5.0,84,0.00,CLR,,0.10,WeatherDisplay:10.37,2013-06-27 22:00:00,
2013-06-27 23:10:00,54.7,49.9,30.00,SW,225,1.0,6.0,84,0.00,CLR,,0.10,WeatherDisplay:10.37,2013-06-27 22:10:00,
2013-06-27 23:20:00,54.1,49.4,30.00,WSW,252,3.0,5.0,84,0.00,CLR,,0.10,WeatherDisplay:10.37,2013-06-27 22:20:00,
2013-06-27 23:30:00,54.3,49.9,30.00,West,268,5.0,7.0,85,0.00,CLR,,0.10,WeatherDisplay:10.37,2013-06-27 22:30:00,
2013-06-27 23:40:00,55.2,51.1,30.00,West,278,8.0,11.0,86,0.00,CLR,,0.10,WeatherDisplay:10.37,2013-06-27 22:40:00,
2013-06-27 23:50:00,55.8,51.6,30.00,West,281,7.0,10.0,86,0.00,CLR,,0.10,WeatherDisplay:10.37,2013-06-27 22:50:00,